Tracking 18840 objects as of 19-November-2017
HD Live streaming from Space Station
objects crossing your sky now

BREEZE-M DEB (TANK)

Track BREEZE-M DEB (TANK) now!


NORAD ID: 32374
Int'l Code: 2007-058B
Perigee: 287.3 km
Apogee: 34,554.3 km
Inclination: 46.0 °
Period: 608.7 minutes
Semi major axis: 23791 km
RCS: 5.0489 m2 (large)
Launch date: December 9, 2007
Source: Commonwealth of Independent States (former USSR) (CIS)
Launch site: TYURATAM MISSILE AND SPACE COMPLEX (TTMTR)

Note: This is SATELLITE DEBRIS
aabbcc
Your satellite tracking list
Your tracking list is empty




NASA's NSSDC Master Catalog

Two Line Element Set (TLE):
1 32374U 07058B   17321.64597058  .00000860  00000-0  41009-3 0  9998
2 32374  45.9653 134.2843 7201446 314.7767   5.5259  2.36571331 84422
Source of the keplerian elements: AFSPC